GW0870 Weather Reports


time (UTC)temp
C
wind
direction
speed
KPH
gust
KPH
rain 1hr
cm
rain 24hr
cm
rain mn
cm
humidity
%
barometer
mb
20260902003104 26 0 0.0 0.0 0.00 0.00 0.00 81 1017.3
20260902001553 27 0 0.0 0.0 0.00 0.00 0.00 79 1017.3
20260902000055 28 0 0.0 0.0 0.00 0.00 0.00 77 1017.3
20260901234604 28 0 0.0 0.0 0.00 0.00 0.00 74 1017.4
20260901233052 30 0 0.0 0.0 0.00 0.00 0.00 71 1017.4
20260901231558 31 0 0.0 0.0 0.00 0.00 0.00 67 1017.5
20260901230056 32 0 0.0 0.0 0.00 0.00 0.00 62 1017.7
20260901224554 33 0 0.0 0.0 0.00 0.00 0.00 55 1017.7
20260901223101 35 0 0.0 3.2 0.00 0.00 0.00 48 1017.5
20260901221618 36 148 0.0 1.6 0.00 0.00 0.00 44 1017.6
20260901220107 37 0 0.0 1.6 0.00 0.00 0.00 41 1017.7
20260901214546 37 107 0.0 1.6 0.00 0.00 0.00 40 1017.7
20260901213103 36 96 0.0 3.2 0.00 0.00 0.00 41 1017.6
20260901211553 36 68 0.0 1.6 0.00 0.00 0.00 48 1017.6
20260901210052 35 326 0.0 3.2 0.00 0.00 0.00 47 1017.7
20260901204558 35 43 0.0 4.8 0.00 0.00 0.00 49 1017.7
20260901203101 36 0 0.0 4.8 0.00 0.00 0.00 48 1017.8
20260901201551 35 49 1.6 4.8 0.00 0.00 0.00 44 1017.8
20260901200059 35 249 1.6 8.0 0.00 0.00 0.00 44 1017.8
20260901194548 35 0 1.6 4.8 0.00 0.00 0.00 45 1018.0
20260901193108 36 296 0.0 4.8 0.00 0.00 0.00 47 1018.1
20260901191553 36 9 0.0 6.4 0.00 0.00 0.00 47 1018.3
20260901190049 36 20 0.0 3.2 0.00 0.00 0.00 48 1018.5
20260901184548 36 142 0.0 3.2 0.00 0.00 0.00 47 1018.6
20260901183057 35 281 0.0 6.4 0.00 0.00 0.00 52 1018.6
20260901181555 34 215 1.6 8.0 0.00 0.00 0.00 53 1018.7
20260901180054 34 136 1.6 6.4 0.00 0.00 0.00 51 1018.8
20260901174559 33 223 0.0 6.4 0.00 0.00 0.00 54 1018.9
20260901173050 34 22 0.0 8.0 0.00 0.00 0.00 55 1019.0
20260901171604 33 88 0.0 9.7 0.00 0.00 0.00 57 1019.1
20260901170104 33 236 0.0 1.6 0.00 0.00 0.00 57 1019.3
20260901164551 33 15 0.0 4.8 0.00 0.00 0.00 60 1019.5
20260901163104 32 0 1.6 9.7 0.00 0.00 0.00 61 1019.7
20260901161554 33 19 0.0 3.2 0.00 0.00 0.00 65 1019.8
20260901154551 31 134 1.6 6.4 0.00 0.00 0.00 62 1020.0
20260901153059 32 22 3.2 6.4 0.00 0.00 0.00 63 1020.2
20260901151558 31 0 0.0 1.6 0.00 0.00 0.00 68 1020.3
20260901150055 31 0 0.0 1.6 0.00 0.00 0.00 69 1020.5
20260901144552 30 0 0.0 4.8 0.00 0.00 0.00 71 1020.4
20260901143102 29 86 0.0 1.6 0.00 0.00 0.00 72 1020.5
20260901141559 29 26 0.0 3.2 0.00 0.00 0.00 74 1020.4
20260901140120 28 0 0.0 1.6 0.00 0.00 0.00 78 1020.5
20260901134611 27 0 0.0 1.6 0.00 0.00 0.00 82 1020.5
20260901133053 25 0 0.0 0.0 0.00 0.00 0.00 93 1020.3
20260901131600 23 0 0.0 0.0 0.00 0.00 0.00 95 1020.4
20260901130107 22 0 0.0 0.0 0.00 0.00 0.00 95 1020.3
20260901124605 22 0 0.0 0.0 0.00 0.00 0.00 96 1020.4
20260901123101 21 0 0.0 0.0 0.00 0.00 0.00 95 1020.2
20260901121604 21 0 0.0 0.0 0.00 0.00 0.00 95 1020.1
20260901114553 21 0 0.0 0.0 0.00 0.00 0.00 95 1019.8
20260901113117 21 0 0.0 0.0 0.00 0.00 0.00 95 1019.5
20260901111549 20 0 0.0 0.0 0.00 0.00 0.00 95 1019.3
20260901110106 20 0 0.0 0.0 0.00 0.00 0.00 95 1019.1
20260901104601 21 0 0.0 0.0 0.00 0.00 0.00 95 1019.1
20260901103050 20 0 0.0 0.0 0.00 0.00 0.00 94 1018.9
20260901101614 21 0 0.0 0.0 0.00 0.00 0.00 94 1018.9
20260901100106 21 0 0.0 0.0 0.00 0.00 0.00 95 1018.9
20260901094549 21 0 0.0 0.0 0.00 0.00 0.00 94 1018.9
20260901093057 21 0 0.0 0.0 0.00 0.00 0.00 95 1018.8
20260901091555 21 0 0.0 0.0 0.00 0.00 0.00 94 1018.8
20260901090100 21 0 0.0 1.6 0.00 0.00 0.00 94 1018.9
20260901084549 21 0 0.0 0.0 0.00 0.00 0.00 94 1019.0
20260901083056 21 0 0.0 0.0 0.00 0.00 0.00 94 1019.0
20260901081602 21 0 0.0 0.0 0.00 0.00 0.00 94 1019.1
20260901080053 21 0 0.0 0.0 0.00 0.00 0.00 94 1019.2
20260901074549 21 0 0.0 0.0 0.00 0.00 0.00 94 1019.2
20260901073103 22 0 0.0 0.0 0.00 0.00 0.00 94 1019.3
20260901071601 22 0 0.0 0.0 0.00 0.00 0.00 94 1019.4
20260901070103 22 0 0.0 0.0 0.00 0.00 0.00 94 1019.5
20260901064606 22 0 0.0 0.0 0.00 0.00 0.00 94 1019.6
20260901063052 22 0 0.0 0.0 0.00 0.00 0.00 94 1019.6
20260901061600 22 0 0.0 0.0 0.00 0.00 0.00 94 1019.6
20260901060100 22 0 0.0 0.0 0.00 0.00 0.00 94 1019.7
20260901054553 22 0 0.0 0.0 0.00 0.00 0.00 94 1019.7
20260901053107 22 0 0.0 0.0 0.00 0.00 0.00 93 1019.6
20260901051607 22 0 0.0 0.0 0.00 0.00 0.00 93 1019.7
20260901050055 22 0 0.0 0.0 0.00 0.00 0.00 93 1019.8
20260901044615 22 0 0.0 0.0 0.00 0.00 0.00 93 1019.8
20260901043053 22 0 0.0 0.0 0.00 0.00 0.00 93 1019.7
20260901041559 22 0 0.0 0.0 0.00 0.00 0.00 93 1019.7
20260901040059 23 0 0.0 0.0 0.00 0.00 0.00 93 1019.7
20260901034601 23 0 0.0 0.0 0.00 0.00 0.00 92 1019.6
20260901033051 23 0 0.0 0.0 0.00 0.00 0.00 92 1019.6
20260901031558 23 0 0.0 0.0 0.00 0.00 0.00 92 1019.6
20260901030055 23 0 0.0 1.6 0.00 0.00 0.00 92 1019.6
20260901024557 23 0 0.0 0.0 0.00 0.00 0.00 91 1019.6
20260901023050 23 0 0.0 0.0 0.00 0.00 0.00 92 1019.8
20260901021616 23 0 0.0 0.0 0.00 0.00 0.00 91 1019.7
20260901020111 23 0 0.0 0.0 0.00 0.00 0.00 91 1019.6
20260901014557 24 0 0.0 0.0 0.00 0.00 0.00 90 1019.3
20260901013106 24 0 0.0 0.0 0.00 0.00 0.00 90 1019.2
20260901011556 25 0 0.0 0.0 0.00 0.00 0.00 89 1019.1
20260901010101 25 0 0.0 0.0 0.00 0.00 0.00 88 1018.8
20260901004603 25 0 0.0 0.0 0.00 0.00 0.00 87 1018.7